This demonstration page uses our WeatherBlox Daily Observations layout. Learn more.

Left ArrowRight Arrow

Hourly Observations for June 1, 2017

Temp ( °F °C ) Dew Point ( °F °C ) Humidity (%) Winds ( mph kmh ) Pressure ( in mb ) Visibility ( mi km ) Precip ( " mm )
12:59 am 00:59 Mostly Cloudy 69 20.6 65 18.3 87 87 SSW 6 9 30.02 1017 7 11 0.00 0.00
1:59 am 01:59 Partly Cloudy 70 21.1 65 18.3 84 84 SW 7 11 30.02 1017 8 13 0.00 0.00
2:59 am 02:59 Partly Cloudy 70 21.1 65 18.3 84 84 WSW 6 9 30.01 1016 9 14 0.00 0.00
3:59 am 03:59 Partly Cloudy 70 21.1 65 18.3 84 84 SW 6 9 30.00 1016 9 14 0.00 0.00
4:59 am 04:59 Mostly Cloudy 71 21.7 65 18.3 81 81 W 8 13 30.01 1016 10 16 0.00 0.00
5:59 am 05:59 Partly Cloudy 70 21.1 64 17.8 82 82 WSW 6 9 30.03 1017 9 14 0.00 0.00
6:59 am 06:59 Mostly Sunny 70 21.1 65 18.3 84 84 SSW 3 6 30.04 1017 8 13 0.00 0.00
7:59 am 07:59 Partly Cloudy 72 22.2 63 17.2 73 73 SW 7 11 30.05 1018 10 16 0.00 0.00
8:59 am 08:59 Partly Cloudy 75 23.9 62 16.7 64 64 VRB 5 7 30.06 1018 10 16 0.00 0.00
9:59 am 09:59 Partly Cloudy 76 24.4 63 17.2 64 64 W 6 9 30.05 1018 10 16 0.00 0.00
10:59 am 10:59 Partly Cloudy 79 26.1 62 16.7 56 56 N 6 9 30.05 1018 10 16 0.00 0.00
11:59 am 11:59 Partly Cloudy 82 27.8 63 17.2 53 53 N 6 9 30.05 1018 10 16 0.00 0.00
12:59 pm 12:59 Partly Cloudy 82 27.8 61 16.1 49 49 W 6 9 30.03 1017 10 16 0.00 0.00
1:59 pm 13:59 Partly Cloudy 84 28.9 49 9.4 30 30 W 6 9 30.01 1016 10 16 0.00 0.00
2:59 pm 14:59 Mostly Cloudy 83 28.3 52 11.1 34 34 WNW 6 9 29.99 1016 10 16 0.00 0.00
3:59 pm 15:59 Mostly Cloudy 85 29.4 53 11.7 33 33 VRB 6 9 29.98 1015 10 16 0.00 0.00
4:59 pm 16:59 Mostly Cloudy 86 30 51 10.6 30 30 WSW 5 7 29.97 1015 10 16 0.00 0.00
5:59 pm 17:59 Mostly Cloudy 85 29.4 50 10 30 30 WSW 7 11 29.96 1015 10 16 0.00 0.00
6:59 pm 18:59 Mostly Cloudy 84 28.9 54 12.2 36 36 SW 7 11 29.96 1015 10 16 0.00 0.00
7:59 pm 19:59 Mostly Cloudy with Thunderstorms 73 22.8 65 18.3 76 76 S 5 7 30.01 1016 9 14 0.00 0.00
8:59 pm 20:59 Mostly Cloudy 78 25.6 65 18.3 64 64 S 5 7 29.97 1015 10 16 0.00 0.00
9:59 pm 21:59 Mostly Cloudy 75 23.9 65 18.3 71 71 S 5 7 30.00 1016 10 16 0.00 0.00
10:59 pm 22:59 Mostly Cloudy 75 23.9 66 18.9 74 74 SSW 6 9 29.99 1016 10 16 0.00 0.00
11:59 pm 23:59 Mostly Cloudy 74 23.3 66 18.9 76 76 S 5 7 29.98 1015 10 16 0.00 0.00

Powered by AerisWeather